M I D A S
Marine Information and Data Acquisition System
Tripno 1522 of the Zeeleeuw from 2008-07-18 07:56:38 to 2008-07-18 15:00:26
Back to CruiseResearch ActivitiesStationsMapUnderway DataData graphs

EquipmentUnitsComments
TimeDGPSUTC
LatitudeDGPSDM.mWGS84
LongitudeDGPSDM.mWGS84
SpeedMeteo Stationm/sRelative wind speed
DirectionMeteo StationdegRelative wind direction
TemperatureMeteo Stationdeg CelciusAir temperature
PressureMeteo StationPaAtmospheric pressure
HumidityMeteo Station%Relative humidity
Missing or incorrect values are displayed as -999
Metereological data collected by the RV Zeeleeuw from 2008-07-18 08:00:17 to 2008-07-18 15:03:24
                                                                                    Next 1000 lines
Time Latitude Longitude Speed Direction Temperature Pressure Humidity
2008-07-18 08:00:26 51°13.623 2°56.045 3 22 16.1 101100 85
2008-07-18 08:00:32 51°13.624 2°56.043 4 36 16.1 101100 85
2008-07-18 08:00:37 51°13.624 2°56.041 4.6 32 16.1 101100 85
2008-07-18 08:00:41 51°13.625 2°56.039 4.2 34 16.1 101100 85
2008-07-18 08:00:46 51°13.625 2°56.036 4.1 33 16.1 101100 85
2008-07-18 08:00:51 51°13.626 2°56.033 3.5 29 16.1 101100 85
2008-07-18 08:00:57 51°13.627 2°56.029 4.2 21 16.1 101100 85
2008-07-18 08:01:01 51°13.628 2°56.027 4.7 31 16.2 101100 85
2008-07-18 08:01:06 51°13.629 2°56.023 3.6 39 16.2 101100 85
2008-07-18 08:01:11 51°13.631 2°56.019 4 35 16.1 101100 85
2008-07-18 08:01:16 51°13.632 2°56.015 2.8 39 16.1 101100 85
2008-07-18 08:01:21 51°13.633 2°56.011 4.7 38 16.2 101100 85
2008-07-18 08:01:26 51°13.635 2°56.006 5 35 16.2 101100 85
2008-07-18 08:01:31 51°13.636 2°56.001 5.1 38 16.2 101100 85
2008-07-18 08:01:37 51°13.637 2°55.995 5.8 34 16.2 101100 85
2008-07-18 08:01:42 51°13.638 2°55.989 4.5 28 16.2 101100 85
2008-07-18 08:01:47 51°13.64 2°55.984 4 42 16.2 101100 85
2008-07-18 08:01:51 51°13.64 2°55.98 4 27 16.1 101110 84
2008-07-18 08:01:56 51°13.641 2°55.974 3.7 51 16.1 101110 84
2008-07-18 08:02:02 51°13.642 2°55.969 4.5 37 16.2 101100 84
2008-07-18 08:02:06 51°13.642 2°55.966 4.6 44 16.2 101100 84
2008-07-18 08:02:11 51°13.643 2°55.963 4.6 38 16.2 101110 84
2008-07-18 08:02:17 51°13.643 2°55.96 4 31 16.2 101110 84
2008-07-18 08:02:22 51°13.644 2°55.958 3.7 33 16.2 101110 84
2008-07-18 08:02:26 51°13.644 2°55.956 3 41 16.2 101110 84
2008-07-18 08:02:31 51°13.644 2°55.955 2.5 21 16.2 101100 84
2008-07-18 08:02:36 51°13.645 2°55.952 2.8 39 16.2 101100 84
2008-07-18 08:02:41 51°13.646 2°55.949 3.1 23 16.2 101110 84
2008-07-18 08:02:47 51°13.647 2°55.946 2.7 35 16.2 101110 84
2008-07-18 08:02:52 51°13.648 2°55.942 2.3 43 16.2 101110 84
2008-07-18 08:02:56 51°13.649 2°55.939 1 10 16.2 101110 84
2008-07-18 08:03:01 51°13.65 2°55.934 1 22 16.2 101110 84
2008-07-18 08:03:06 51°13.652 2°55.929 0.6 58 16.2 101110 84
2008-07-18 08:03:11 51°13.653 2°55.924 0.9 14 16.2 101100 84
2008-07-18 08:03:17 51°13.656 2°55.918 1.4 52 16.2 101100 84
2008-07-18 08:03:22 51°13.657 2°55.912 1.8 22 16.2 101100 84
2008-07-18 08:03:26 51°13.659 2°55.908 1.6 7 16.2 101100 84
2008-07-18 08:03:31 51°13.66 2°55.902 1.4 20 16.2 101100 84
2008-07-18 08:03:36 51°13.662 2°55.895 3.4 56 16.2 101100 84
2008-07-18 08:03:41 51°13.664 2°55.889 3.6 23 16.2 101100 84
2008-07-18 08:03:46 51°13.666 2°55.882 3.7 58 16.2 101100 84
2008-07-18 08:03:51 51°13.668 2°55.875 5 26 16.3 101100 85
2008-07-18 08:03:57 51°13.671 2°55.867 5.9 36 16.3 101100 85
2008-07-18 08:04:02 51°13.673 2°55.86 6.6 37 16.2 101100 84
2008-07-18 08:04:06 51°13.675 2°55.855 6.9 30 16.2 101100 84
2008-07-18 08:04:11 51°13.677 2°55.848 4.6 38 16.3 101110 84
2008-07-18 08:04:16 51°13.679 2°55.84 6.5 36 16.3 101110 84
2008-07-18 08:04:22 51°13.681 2°55.831 5.8 34 16.3 101100 84
2008-07-18 08:04:27 51°13.683 2°55.824 6 33 16.3 101100 84
2008-07-18 08:04:32 51°13.685 2°55.818 5.8 32 16.2 101100 84
2008-07-18 08:04:37 51°13.687 2°55.811 5.8 29 16.2 101100 84
2008-07-18 08:04:42 51°13.688 2°55.805 6.3 29 16.2 101100 84
2008-07-18 08:04:47 51°13.69 2°55.798 4 35 16.2 101100 84
2008-07-18 08:04:51 51°13.691 2°55.793 4.6 30 16.2 101100 84
2008-07-18 08:04:56 51°13.692 2°55.787 4.5 37 16.2 101100 84
2008-07-18 08:05:01 51°13.693 2°55.782 4.7 33 16.2 101110 84
2008-07-18 08:05:06 51°13.694 2°55.776 5 29 16.2 101110 84
2008-07-18 08:05:11 51°13.695 2°55.771 4.2 25 16.2 101110 84
2008-07-18 08:05:16 51°13.696 2°55.767 3 36 16.2 101110 84
2008-07-18 08:05:21 51°13.697 2°55.764 4 35 16.2 101110 84
2008-07-18 08:05:25 51°13.697 2°55.761 3.8 33 16.2 101110 84
2008-07-18 08:05:31 51°13.698 2°55.759 3.5 23 16.2 101100 84
2008-07-18 08:05:36 51°13.698 2°55.758 4.5 34 16.2 101100 84
2008-07-18 08:05:41 51°13.699 2°55.758 3.9 33 16.2 101110 84
2008-07-18 08:05:46 51°13.699 2°55.759 3.5 40 16.2 101110 84
2008-07-18 08:05:50 51°13.7 2°55.76 3 43 16.2 101110 84
2008-07-18 08:05:56 51°13.701 2°55.762 2 28 16.2 101110 84
2008-07-18 08:06:01 51°13.702 2°55.764 2.6 31 16.2 101100 84
2008-07-18 08:06:06 51°13.704 2°55.767 2.1 35 16.2 101100 84
2008-07-18 08:06:11 51°13.706 2°55.77 1.7 44 16.2 101110 84
2008-07-18 08:06:16 51°13.708 2°55.772 2.2 55 16.2 101110 84
2008-07-18 08:06:21 51°13.71 2°55.775 2.6 30 16.2 101110 84
2008-07-18 08:06:26 51°13.712 2°55.776 2.9 59 16.2 101110 84
2008-07-18 08:06:30 51°13.713 2°55.778 3.1 22 16.2 101110 84
2008-07-18 08:06:35 51°13.714 2°55.779 3.2 56 16.2 101110 84
2008-07-18 08:06:40 51°13.715 2°55.779 3 22 16.2 101110 84
2008-07-18 08:06:46 51°13.716 2°55.78 3.6 52 16.2 101110 84
2008-07-18 08:06:51 51°13.716 2°55.781 3 22 16.2 101110 84
2008-07-18 08:06:56 51°13.716 2°55.781 2.4 58 16.2 101110 84
2008-07-18 08:07:00 51°13.715 2°55.781 3.3 25 16.2 101110 84
2008-07-18 08:07:05 51°13.714 2°55.781 3.5 52 16.2 101110 84
2008-07-18 08:07:10 51°13.713 2°55.78 4.2 23 16.2 101110 84
2008-07-18 08:07:16 51°13.711 2°55.78 3.5 58 16.2 101110 84
2008-07-18 08:07:21 51°13.71 2°55.779 3.1 28 16.3 101110 84
2008-07-18 08:07:26 51°13.708 2°55.779 3.4 52 16.3 101110 84
2008-07-18 08:07:31 51°13.706 2°55.778 4 28 16.3 101110 84
2008-07-18 08:07:37 51°13.704 2°55.778 2.5 57 16.3 101110 84
2008-07-18 08:07:42 51°13.703 2°55.777 2.5 23 16.3 101110 84
2008-07-18 08:07:47 51°13.703 2°55.777 3.5 57 16.3 101110 84
2008-07-18 08:07:52 51°13.703 2°55.777 3.4 23 16.3 101110 84
2008-07-18 08:07:57 51°13.704 2°55.777 3.2 52 16.3 101110 84
2008-07-18 08:08:01 51°13.706 2°55.777 2.2 270 16.3 101100 84
2008-07-18 08:08:07 51°13.708 2°55.776 2.7 304 16.3 101100 84
2008-07-18 08:08:10 51°13.709 2°55.776 1.6 24 16.3 101110 84
2008-07-18 08:08:17 51°13.713 2°55.774 3.4 303 16.3 101110 84
2008-07-18 08:08:21 51°13.715 2°55.772 2.3 267 16.3 101110 84
2008-07-18 08:08:26 51°13.718 2°55.769 2.4 310 16.3 101110 84
2008-07-18 08:08:30 51°13.721 2°55.766 2.1 270 16.3 101110 84
2008-07-18 08:08:36 51°13.725 2°55.761 2.3 304 16.3 101110 84
2008-07-18 08:08:41 51°13.729 2°55.755 2.3 259 16.3 101110 84
2008-07-18 08:08:46 51°13.733 2°55.75 2.6 308 16.3 101110 84
2008-07-18 08:08:51 51°13.737 2°55.743 1.5 29 16.4 101110 84
2008-07-18 08:08:56 51°13.741 2°55.736 1.9 329 16.4 101110 84
2008-07-18 08:09:01 51°13.746 2°55.729 3.2 27 16.4 101110 84
2008-07-18 08:09:06 51°13.75 2°55.722 4.6 302 16.4 101110 84
2008-07-18 08:09:11 51°13.756 2°55.714 4.5 243 16.4 101110 84
2008-07-18 08:09:16 51°13.761 2°55.706 3 302 16.4 101110 84
2008-07-18 08:09:21 51°13.767 2°55.698 2.9 22 16.4 101110 84
2008-07-18 08:09:26 51°13.773 2°55.69 3.8 309 16.4 101110 84
2008-07-18 08:09:31 51°13.779 2°55.682 2.8 21 16.4 101110 84
2008-07-18 08:09:36 51°13.785 2°55.674 3.6 309 16.4 101110 84
2008-07-18 08:09:41 51°13.792 2°55.665 3.2 21 16.4 101110 84
2008-07-18 08:09:46 51°13.799 2°55.657 3.5 303 16.4 101110 84
2008-07-18 08:09:51 51°13.806 2°55.649 4 22 16.4 101110 84
2008-07-18 08:09:56 51°13.814 2°55.642 3.6 308 16.4 101110 84
2008-07-18 08:10:01 51°13.821 2°55.634 2.6 332 16.4 101110 84
2008-07-18 08:10:05 51°13.827 2°55.629 2.9 302 16.4 101110 84
2008-07-18 08:10:10 51°13.835 2°55.621 3.3 326 16.4 101120 84
2008-07-18 08:10:15 51°13.843 2°55.614 3.2 300 16.4 101120 84
2008-07-18 08:10:20 51°13.851 2°55.607 3 26 16.4 101110 84
2008-07-18 08:10:26 51°13.861 2°55.599 3.3 307 16.4 101110 84
2008-07-18 08:10:30 51°13.867 2°55.593 2.3 27 16.4 101110 84
2008-07-18 08:10:35 51°13.875 2°55.586 3.7 303 16.4 101110 84
2008-07-18 08:10:40 51°13.884 2°55.58 4.2 25 16.4 101110 84
2008-07-18 08:10:45 51°13.892 2°55.573 4.7 302 16.4 101110 84
2008-07-18 08:10:50 51°13.901 2°55.567 2.9 251 16.4 101110 84
2008-07-18 08:10:55 51°13.909 2°55.561 2.6 309 16.4 101110 84
2008-07-18 08:11:00 51°13.918 2°55.554 3 318 16.4 101110 84
2008-07-18 08:11:05 51°13.926 2°55.548 2.8 307 16.4 101110 84
2008-07-18 08:11:09 51°13.933 2°55.544 2.2 27 16.4 101110 84
2008-07-18 08:11:15 51°13.944 2°55.536 2.5 306 16.4 101110 84
2008-07-18 08:11:20 51°13.952 2°55.53 1.8 327 16.4 101110 84
2008-07-18 08:11:25 51°13.961 2°55.523 1.1 304 16.4 101110 84
2008-07-18 08:11:30 51°13.969 2°55.517 1.8 325 16.4 101120 84
2008-07-18 08:11:35 51°13.978 2°55.511 3.4 302 16.4 101120 84
2008-07-18 08:11:39 51°13.985 2°55.505 2.7 245 16.4 101110 84
2008-07-18 08:11:44 51°13.993 2°55.499 1.7 303 16.4 101110 84
2008-07-18 08:11:49 51°14.002 2°55.492 1.2 255 16.4 101110 84
2008-07-18 08:11:54 51°14.011 2°55.486 1.5 303 16.4 101110 84
2008-07-18 08:11:59 51°14.019 2°55.48 1.1 256 16.4 101110 84
2008-07-18 08:12:03 51°14.026 2°55.475 1.9 302 16.4 101110 84
2008-07-18 08:12:08 51°14.035 2°55.468 2.5 24 16.4 101110 83
2008-07-18 08:12:14 51°14.045 2°55.461 2.2 308 16.4 101110 83
2008-07-18 08:12:19 51°14.054 2°55.454 2.3 24 16.4 101110 84
2008-07-18 08:12:24 51°14.063 2°55.448 2.2 301 16.4 101110 84
2008-07-18 08:12:29 51°14.071 2°55.441 2.5 27 16.4 101110 84
2008-07-18 08:12:34 51°14.08 2°55.434 3 308 16.4 101110 84
2008-07-18 08:12:40 51°14.091 2°55.425 2.8 248 16.4 101110 84
2008-07-18 08:12:44 51°14.098 2°55.419 3.3 306 16.4 101110 84
2008-07-18 08:12:48 51°14.106 2°55.414 3.1 328 16.4 101110 84
2008-07-18 08:12:54 51°14.117 2°55.404 2.4 326 16.4 101110 84
2008-07-18 08:13:00 51°14.129 2°55.395 3.1 335 16.4 101110 84
2008-07-18 08:13:05 51°14.138 2°55.387 3.2 308 16.4 101110 84
2008-07-18 08:13:10 51°14.148 2°55.379 2.5 317 16.4 101110 84
2008-07-18 08:13:14 51°14.156 2°55.372 3.4 303 16.4 101110 84
2008-07-18 08:13:19 51°14.166 2°55.364 3.1 324 16.4 101110 84
2008-07-18 08:13:26 51°14.18 2°55.35 3.5 303 16.4 101110 84
2008-07-18 08:13:29 51°14.186 2°55.344 3.7 330 16.5 101110 84
2008-07-18 08:13:35 51°14.198 2°55.331 6.1 307 16.5 101110 84
2008-07-18 08:13:39 51°14.205 2°55.323 7.2 26 16.5 101110 84
2008-07-18 08:13:45 51°14.217 2°55.309 5.3 303 16.5 101110 84
2008-07-18 08:13:50 51°14.227 2°55.296 8.8 29 16.5 101110 84
2008-07-18 08:13:55 51°14.236 2°55.283 7.8 302 16.5 101110 84
2008-07-18 08:14:00 51°14.246 2°55.269 6.7 22 16.5 101110 84
2008-07-18 08:14:05 51°14.255 2°55.255 5.3 301 16.5 101110 84
2008-07-18 08:14:10 51°14.264 2°55.24 5.4 28 16.5 101110 84
2008-07-18 08:14:15 51°14.273 2°55.224 6.5 308 16.5 101110 84
2008-07-18 08:14:19 51°14.28 2°55.212 5.8 28 16.5 101110 84
2008-07-18 08:14:25 51°14.291 2°55.193 7.9 309 16.5 101110 84
2008-07-18 08:14:29 51°14.298 2°55.18 8.3 27 16.5 101110 84
2008-07-18 08:14:35 51°14.309 2°55.161 6.9 307 16.5 101110 84
2008-07-18 08:14:40 51°14.318 2°55.144 6.6 24 16.5 101100 84
2008-07-18 08:14:45 51°14.327 2°55.127 6.6 302 16.5 101100 84
2008-07-18 08:14:49 51°14.334 2°55.114 5.6 29 16.4 101100 84
2008-07-18 08:14:54 51°14.343 2°55.097 6.8 307 16.4 101100 84
2008-07-18 08:14:59 51°14.352 2°55.079 8.4 23 16.5 101100 84
2008-07-18 08:15:04 51°14.361 2°55.062 8.9 301 16.5 101100 84
2008-07-18 08:15:09 51°14.37 2°55.044 8.7 25 16.4 101100 84
2008-07-18 08:15:14 51°14.379 2°55.027 10.5 308 16.4 101100 84
2008-07-18 08:15:19 51°14.389 2°55.01 8.7 22 16.5 101100 84
2008-07-18 08:15:24 51°14.399 2°54.992 8.1 302 16.5 101100 84
2008-07-18 08:15:28 51°14.406 2°54.978 7.3 23 16.5 101100 84
2008-07-18 08:15:33 51°14.416 2°54.96 9.7 303 16.5 101100 84
2008-07-18 08:15:38 51°14.425 2°54.942 9.7 26 16.5 101090 84
2008-07-18 08:15:44 51°14.438 2°54.922 7.7 303 16.5 101090 84
2008-07-18 08:15:48 51°14.446 2°54.909 7.8 22 16.5 101090 84
2008-07-18 08:15:52 51°14.454 2°54.895 7.5 301 16.5 101090 84
2008-07-18 08:15:58 51°14.467 2°54.876 7.4 26 16.5 101090 84
2008-07-18 08:16:03 51°14.478 2°54.86 7.4 304 16.5 101090 84
2008-07-18 08:16:08 51°14.49 2°54.846 7.8 245 16.4 101100 84
2008-07-18 08:16:13 51°14.503 2°54.833 8 303 16.4 101100 84
2008-07-18 08:16:17 51°14.513 2°54.822 6.7 20 16.4 101100 84
2008-07-18 08:16:23 51°14.528 2°54.809 5.9 309 16.4 101100 84
2008-07-18 08:16:28 51°14.542 2°54.799 7.8 252 16.4 101100 84
2008-07-18 08:16:33 51°14.556 2°54.792 6.5 301 16.4 101100 84
2008-07-18 08:16:37 51°14.567 2°54.786 5.8 254 16.4 101100 84
2008-07-18 08:16:42 51°14.582 2°54.78 6.4 309 16.4 101100 84
2008-07-18 08:16:47 51°14.597 2°54.775 7.6 256 16.4 101100 84
2008-07-18 08:16:53 51°14.616 2°54.771 4.9 303 16.4 101100 84
2008-07-18 08:16:57 51°14.628 2°54.767 5 249 16.4 101100 84
2008-07-18 08:17:02 51°14.644 2°54.762 5.4 304 16.4 101100 84
2008-07-18 08:17:07 51°14.659 2°54.757 5.1 248 16.4 101110 84
2008-07-18 08:17:12 51°14.675 2°54.752 7.3 304 16.4 101110 84
2008-07-18 08:17:17 51°14.691 2°54.746 7.1 247 16.4 101100 84
2008-07-18 08:17:22 51°14.706 2°54.74 6.7 309 16.4 101100 84
2008-07-18 08:17:27 51°14.722 2°54.734 6.8 20 16.4 101100 84
2008-07-18 08:17:32 51°14.738 2°54.729 6.6 304 16.4 101100 84
2008-07-18 08:17:37 51°14.754 2°54.723 5.1 249 16.4 101100 84
2008-07-18 08:17:42 51°14.77 2°54.717 6.8 307 16.4 101100 84
2008-07-18 08:17:47 51°14.786 2°54.711 5.4 247 16.4 101100 84
2008-07-18 08:17:52 51°14.802 2°54.706 6.7 309 16.4 101100 84
2008-07-18 08:17:57 51°14.818 2°54.7 7.9 248 16.4 101100 84
2008-07-18 08:18:02 51°14.834 2°54.695 6.3 305 16.4 101100 84
2008-07-18 08:18:07 51°14.85 2°54.689 7.3 247 16.4 101110 84
2008-07-18 08:18:12 51°14.865 2°54.684 7.2 301 16.4 101110 84
2008-07-18 08:18:17 51°14.881 2°54.678 7.4 251 16.4 101110 84
2008-07-18 08:18:22 51°14.897 2°54.674 4.4 303 16.4 101110 84
2008-07-18 08:18:27 51°14.914 2°54.668 5.1 250 16.4 101100 84
2008-07-18 08:18:32 51°14.93 2°54.664 5.3 303 16.4 101100 84
2008-07-18 08:18:37 51°14.946 2°54.658 6.6 251 16.4 101110 84
2008-07-18 08:18:42 51°14.962 2°54.654 7 306 16.4 101110 84
2008-07-18 08:18:47 51°14.977 2°54.648 5.8 243 16.4 101100 84
2008-07-18 08:18:53 51°14.996 2°54.642 5.5 309 16.4 101100 84
2008-07-18 08:18:57 51°15.009 2°54.639 7.1 22 16.4 101110 84
2008-07-18 08:19:02 51°15.025 2°54.633 4.4 303 16.4 101110 84
2008-07-18 08:19:07 51°15.041 2°54.629 7.4 248 16.4 101100 84
2008-07-18 08:19:12 51°15.056 2°54.625 6 303 16.4 101100 84
2008-07-18 08:19:17 51°15.072 2°54.621 5.7 252 16.4 101100 84
2008-07-18 08:19:22 51°15.088 2°54.618 7.5 304 16.4 101100 84
2008-07-18 08:19:27 51°15.104 2°54.615 7.4 252 16.4 101110 84
2008-07-18 08:19:33 51°15.123 2°54.61 6 308 16.4 101110 84
2008-07-18 08:19:37 51°15.135 2°54.608 7.1 255 16.4 101110 84
2008-07-18 08:19:42 51°15.151 2°54.604 5.5 303 16.4 101110 84
2008-07-18 08:19:47 51°15.167 2°54.6 5.8 255 16.4 101100 84
2008-07-18 08:19:52 51°15.183 2°54.597 7.3 310 16.4 101100 84
2008-07-18 08:19:57 51°15.199 2°54.593 5.8 257 16.5 101110 84
2008-07-18 08:20:02 51°15.215 2°54.59 5.1 308 16.5 101110 84
2008-07-18 08:20:07 51°15.231 2°54.586 6.8 255 16.5 101110 84
2008-07-18 08:20:12 51°15.247 2°54.583 6.4 301 16.5 101110 84
2008-07-18 08:20:17 51°15.263 2°54.579 5.8 257 16.5 101110 84
2008-07-18 08:20:22 51°15.279 2°54.575 5.7 306 16.5 101110 84
2008-07-18 08:20:27 51°15.295 2°54.572 6.9 256 16.4 101110 84
2008-07-18 08:20:32 51°15.311 2°54.568 5.5 303 16.4 101110 84
2008-07-18 08:20:37 51°15.327 2°54.564 5.9 252 16.5 101110 84
2008-07-18 08:20:42 51°15.343 2°54.56 5.5 303 16.5 101110 84
2008-07-18 08:20:47 51°15.359 2°54.557 5.3 257 16.5 101110 84
2008-07-18 08:20:52 51°15.375 2°54.552 5.5 309 16.5 101110 84
2008-07-18 08:20:57 51°15.391 2°54.547 6 252 16.5 101110 84
2008-07-18 08:21:02 51°15.407 2°54.542 4.4 309 16.5 101110 84
2008-07-18 08:21:07 51°15.423 2°54.536 6.3 254 16.5 101110 84
2008-07-18 08:21:12 51°15.439 2°54.532 5.6 302 16.5 101110 84
2008-07-18 08:21:17 51°15.455 2°54.526 5.6 247 16.5 101100 84
2008-07-18 08:21:22 51°15.47 2°54.521 7.1 306 16.5 101100 84
2008-07-18 08:21:27 51°15.486 2°54.515 8 23 16.5 101110 84
2008-07-18 08:21:33 51°15.505 2°54.509 8.2 301 16.5 101110 84
2008-07-18 08:21:37 51°15.518 2°54.505 7.8 250 16.5 101110 84
2008-07-18 08:21:42 51°15.534 2°54.499 7.1 302 16.5 101110 84
2008-07-18 08:21:47 51°15.549 2°54.494 7.5 255 16.5 101110 85
2008-07-18 08:21:52 51°15.565 2°54.489 6.7 307 16.5 101110 85
2008-07-18 08:21:57 51°15.581 2°54.484 6.3 250 16.5 101100 85
2008-07-18 08:22:02 51°15.597 2°54.479 6.6 304 16.5 101100 85
2008-07-18 08:22:07 51°15.613 2°54.475 4.8 252 16.5 101100 84
2008-07-18 08:22:12 51°15.629 2°54.47 6.8 303 16.5 101100 84
2008-07-18 08:22:17 51°15.645 2°54.466 6.6 253 16.5 101110 84
2008-07-18 08:22:22 51°15.661 2°54.462 5.7 306 16.5 101110 84
2008-07-18 08:22:27 51°15.677 2°54.459 7.4 254 16.5 101100 84
2008-07-18 08:22:32 51°15.693 2°54.455 5.6 308 16.5 101100 84
2008-07-18 08:22:37 51°15.71 2°54.451 4.5 249 16.4 101100 84
2008-07-18 08:22:42 51°15.725 2°54.446 6.8 301 16.4 101100 84
2008-07-18 08:22:47 51°15.741 2°54.442 5.4 255 16.4 101100 84
2008-07-18 08:22:52 51°15.757 2°54.438 6.7 303 16.4 101100 84
2008-07-18 08:22:57 51°15.773 2°54.434 5.4 254 16.4 101110 84
2008-07-18 08:23:02 51°15.789 2°54.431 4.9 302 16.4 101110 84
2008-07-18 08:23:07 51°15.806 2°54.426 6.2 25 16.4 101110 84
2008-07-18 08:23:12 51°15.822 2°54.423 7.6 301 16.4 101110 84
2008-07-18 08:23:17 51°15.838 2°54.419 7.5 255 16.4 101110 84
2008-07-18 08:23:22 51°15.854 2°54.416 5.9 307 16.4 101110 84
2008-07-18 08:23:27 51°15.87 2°54.412 6.2 257 16.4 101110 84
2008-07-18 08:23:33 51°15.889 2°54.408 7 308 16.4 101110 84
2008-07-18 08:23:37 51°15.902 2°54.404 8 255 16.5 101100 84
2008-07-18 08:23:42 51°15.918 2°54.399 7.9 301 16.5 101100 84
2008-07-18 08:23:47 51°15.933 2°54.391 4.9 250 16.4 101090 84
2008-07-18 08:23:52 51°15.949 2°54.384 7.8 308 16.4 101090 84
2008-07-18 08:23:57 51°15.964 2°54.374 7.7 248 16.4 101110 84
2008-07-18 08:24:02 51°15.979 2°54.364 7.4 300 16.4 101110 84
2008-07-18 08:24:07 51°15.994 2°54.353 7.3 23 16.4 101100 84
2008-07-18 08:24:12 51°16.008 2°54.341 8.4 305 16.4 101100 84
2008-07-18 08:24:17 51°16.023 2°54.328 7.7 243 16.4 101100 84
2008-07-18 08:24:22 51°16.037 2°54.314 9.3 301 16.4 101100 84
2008-07-18 08:24:27 51°16.051 2°54.301 10 24 16.5 101100 84
2008-07-18 08:24:32 51°16.065 2°54.286 8.7 304 16.5 101100 84
2008-07-18 08:24:37 51°16.079 2°54.272 10.3 247 16.5 101100 84
2008-07-18 08:24:42 51°16.092 2°54.256 10.5 303 16.5 101100 84
2008-07-18 08:24:47 51°16.106 2°54.24 7.3 246 16.5 101090 84
2008-07-18 08:24:52 51°16.119 2°54.225 9.9 308 16.5 101090 84
2008-07-18 08:24:57 51°16.132 2°54.21 7.7 25 16.5 101090 84
2008-07-18 08:25:02 51°16.145 2°54.195 10.3 307 16.5 101090 84
2008-07-18 08:25:07 51°16.157 2°54.179 7.6 23 16.5 101090 84
2008-07-18 08:25:12 51°16.169 2°54.164 9.7 308 16.5 101090 84
2008-07-18 08:25:17 51°16.181 2°54.149 7.7 24 16.5 101080 84
2008-07-18 08:25:22 51°16.193 2°54.134 8.1 309 16.5 101080 84
2008-07-18 08:25:27 51°16.205 2°54.119 7.8 24 16.5 101090 84
2008-07-18 08:25:33 51°16.22 2°54.102 10.2 306 16.5 101090 84
2008-07-18 08:25:37 51°16.229 2°54.091 7.6 22 16.5 101090 84
2008-07-18 08:25:42 51°16.242 2°54.077 8.4 306 16.5 101090 84
2008-07-18 08:25:47 51°16.254 2°54.063 7.5 250 16.5 101090 84
2008-07-18 08:25:52 51°16.266 2°54.049 7.9 306 16.5 101090 84
2008-07-18 08:25:57 51°16.278 2°54.035 7.4 248 16.5 101090 84
2008-07-18 08:26:02 51°16.29 2°54.021 7 308 16.5 101090 84
2008-07-18 08:26:07 51°16.302 2°54.007 7.1 24 16.5 101080 84
2008-07-18 08:26:12 51°16.314 2°53.993 9.5 305 16.5 101080 84
2008-07-18 08:26:17 51°16.326 2°53.979 9.6 246 16.5 101090 84
2008-07-18 08:26:22 51°16.338 2°53.966 9.2 308 16.5 101090 84
2008-07-18 08:26:27 51°16.35 2°53.952 9.9 22 16.5 101090 84
2008-07-18 08:26:32 51°16.362 2°53.939 7.5 302 16.5 101090 84
2008-07-18 08:26:37 51°16.374 2°53.925 9.9 21 16.5 101090 84
2008-07-18 08:26:42 51°16.386 2°53.911 9.3 307 16.5 101090 84
2008-07-18 08:26:47 51°16.398 2°53.897 7.2 249 16.5 101090 84
2008-07-18 08:26:52 51°16.41 2°53.883 6.6 308 16.5 101090 84
2008-07-18 08:26:57 51°16.423 2°53.87 8.5 21 16.5 101080 84
2008-07-18 08:27:02 51°16.435 2°53.856 10 303 16.5 101080 84
2008-07-18 08:27:07 51°16.447 2°53.842 8.4 249 16.5 101090 84
2008-07-18 08:27:12 51°16.459 2°53.829 9.7 306 16.5 101090 84
2008-07-18 08:27:17 51°16.472 2°53.816 7.6 245 16.5 101090 84
2008-07-18 08:27:22 51°16.484 2°53.803 7.3 306 16.5 101090 84
2008-07-18 08:27:27 51°16.497 2°53.789 6.4 247 16.5 101090 84
2008-07-18 08:27:32 51°16.51 2°53.776 7.7 302 16.5 101090 84
2008-07-18 08:27:37 51°16.522 2°53.763 9.3 247 16.5 101090 84
2008-07-18 08:27:42 51°16.534 2°53.75 10.1 304 16.5 101090 84
2008-07-18 08:27:47 51°16.546 2°53.737 9.8 248 16.5 101090 84
2008-07-18 08:27:52 51°16.558 2°53.723 7.5 303 16.5 101090 84
2008-07-18 08:27:57 51°16.57 2°53.71 9.6 21 16.5 101090 84
2008-07-18 08:28:02 51°16.582 2°53.697 8.3 306 16.5 101090 84
2008-07-18 08:28:07 51°16.593 2°53.683 9.6 247 16.6 101100 84
2008-07-18 08:28:12 51°16.605 2°53.669 9.3 309 16.6 101100 84
2008-07-18 08:28:17 51°16.617 2°53.656 8.5 245 16.5 101090 84
2008-07-18 08:28:22 51°16.629 2°53.642 10.6 302 16.5 101090 84
2008-07-18 08:28:27 51°16.641 2°53.629 8.5 248 16.6 101090 84
2008-07-18 08:28:33 51°16.655 2°53.613 8.3 304 16.6 101090 84
2008-07-18 08:28:37 51°16.665 2°53.602 7.8 248 16.6 101090 84
2008-07-18 08:28:42 51°16.677 2°53.589 9.3 308 16.6 101090 84
2008-07-18 08:28:47 51°16.689 2°53.576 8.1 20 16.6 101090 84
2008-07-18 08:28:52 51°16.701 2°53.563 10.2 304 16.6 101090 84
2008-07-18 08:28:57 51°16.713 2°53.55 10.3 250 16.5 101080 84
2008-07-18 08:29:02 51°16.726 2°53.537 9.9 308 16.5 101080 84
2008-07-18 08:29:07 51°16.738 2°53.524 7.5 247 16.6 101100 84
2008-07-18 08:29:12 51°16.75 2°53.511 8.1 301 16.6 101100 84
2008-07-18 08:29:17 51°16.763 2°53.499 9.9 248 16.6 101080 84
2008-07-18 08:29:22 51°16.775 2°53.486 9.3 307 16.6 101080 84
2008-07-18 08:29:27 51°16.787 2°53.474 9.2 252 16.6 101090 84
2008-07-18 08:29:32 51°16.8 2°53.461 6.9 303 16.6 101090 84
2008-07-18 08:29:37 51°16.812 2°53.448 9.7 250 16.5 101090 84
2008-07-18 08:29:42 51°16.824 2°53.436 7.6 307 16.5 101090 84
2008-07-18 08:29:47 51°16.837 2°53.423 8.7 245 16.5 101090 84
2008-07-18 08:29:52 51°16.849 2°53.411 7.3 306 16.5 101090 84
2008-07-18 08:29:57 51°16.861 2°53.398 7.2 22 16.5 101090 84
2008-07-18 08:30:02 51°16.874 2°53.386 9.7 309 16.5 101090 84
2008-07-18 08:30:07 51°16.886 2°53.374 7.9 245 16.6 101090 84
2008-07-18 08:30:12 51°16.899 2°53.363 8.3 306 16.6 101090 84
2008-07-18 08:30:17 51°16.912 2°53.352 7.2 253 16.5 101090 84
2008-07-18 08:30:22 51°16.924 2°53.342 9.4 303 16.5 101090 84
2008-07-18 08:30:27 51°16.937 2°53.333 7.6 253 16.5 101090 84
2008-07-18 08:30:33 51°16.953 2°53.322 7.5 306 16.5 101090 84
2008-07-18 08:30:37 51°16.963 2°53.315 9.3 254 16.6 101090 84
2008-07-18 08:30:42 51°16.975 2°53.306 7.2 303 16.6 101090 84
2008-07-18 08:30:47 51°16.988 2°53.297 7.5 255 16.6 101100 84
2008-07-18 08:30:52 51°17.001 2°53.289 6.6 305 16.6 101100 84
2008-07-18 08:30:57 51°17.014 2°53.28 9.6 254 16.6 101090 84
2008-07-18 08:31:02 51°17.028 2°53.272 6.2 303 16.6 101090 84
2008-07-18 08:31:07 51°17.041 2°53.264 7.2 249 16.6 101090 84
2008-07-18 08:31:12 51°17.054 2°53.255 8.9 309 16.6 101090 84
2008-07-18 08:31:17 51°17.067 2°53.246 8.4 252 16.6 101090 84
2008-07-18 08:31:22 51°17.08 2°53.238 7.6 303 16.6 101090 84
2008-07-18 08:31:27 51°17.093 2°53.229 6.7 251 16.6 101090 84
2008-07-18 08:31:32 51°17.106 2°53.221 8.3 302 16.6 101090 84
2008-07-18 08:31:37 51°17.119 2°53.216 8 253 16.6 101100 84
2008-07-18 08:31:42 51°17.133 2°53.211 6.2 303 16.6 101100 84
2008-07-18 08:31:47 51°17.147 2°53.208 9.2 259 16.6 101100 84
2008-07-18 08:31:52 51°17.16 2°53.206 6.6 301 16.6 101100 84
2008-07-18 08:31:57 51°17.174 2°53.205 5.4 262 16.6 101090 84
2008-07-18 08:32:02 51°17.188 2°53.205 4.6 309 16.6 101090 84
2008-07-18 08:32:07 51°17.201 2°53.206 3.7 263 16.6 101100 84
2008-07-18 08:32:12 51°17.215 2°53.209 4.6 308 16.6 101100 84
2008-07-18 08:32:17 51°17.228 2°53.212 3.3 267 16.6 101100 84
2008-07-18 08:32:22 51°17.241 2°53.217 3.9 60 16.6 101100 84
2008-07-18 08:32:27 51°17.254 2°53.223 3.6 23 16.6 101100 84
2008-07-18 08:32:33 51°17.27 2°53.23 4.2 59 16.6 101100 84
2008-07-18 08:32:37 51°17.28 2°53.236 3.5 30 16.6 101100 84
2008-07-18 08:32:42 51°17.292 2°53.246 2.7 53 16.6 101100 84
2008-07-18 08:32:47 51°17.304 2°53.255 2.6 28 16.6 101110 84
2008-07-18 08:32:52 51°17.315 2°53.267 2.3 59 16.6 101110 84
2008-07-18 08:32:57 51°17.327 2°53.278 2.2 27 16.6 101100 84
2008-07-18 08:33:02 51°17.338 2°53.291 1.4 57 16.6 101100 84
2008-07-18 08:33:07 51°17.349 2°53.304 2 26 16.5 101110 83
2008-07-18 08:33:13 51°17.362 2°53.319 2.1 57 16.5 101110 83
2008-07-18 08:33:17 51°17.37 2°53.33 2.6 27 16.5 101110 83
2008-07-18 08:33:22 51°17.381 2°53.342 2.4 57 16.5 101110 83
2008-07-18 08:33:27 51°17.392 2°53.355 2.7 29 16.5 101110 84
2008-07-18 08:33:32 51°17.403 2°53.368 2.1 51 16.5 101110 84
2008-07-18 08:33:37 51°17.414 2°53.381 1.8 23 16.6 101100 84
2008-07-18 08:33:42 51°17.425 2°53.395 2.4 55 16.6 101100 84
2008-07-18 08:33:47 51°17.436 2°53.408 2.9 29 16.6 101110 84
2008-07-18 08:33:52 51°17.446 2°53.421 1.9 53 16.6 101110 84
2008-07-18 08:33:57 51°17.457 2°53.434 1.5 38 16.6 101100 84
2008-07-18 08:34:02 51°17.468 2°53.447 1.7 56 16.6 101100 84
2008-07-18 08:34:07 51°17.478 2°53.46 2.3 22 16.6 101100 84
2008-07-18 08:34:12 51°17.489 2°53.473 2.6 56 16.6 101100 84
2008-07-18 08:34:17 51°17.5 2°53.486 2.7 27 16.6 101110 84
2008-07-18 08:34:22 51°17.511 2°53.499 1.9 57 16.6 101110 84
2008-07-18 08:34:27 51°17.522 2°53.512 1.5 20 16.6 101110 84
2008-07-18 08:34:33 51°17.535 2°53.527 2.1 52 16.6 101110 84
2008-07-18 08:34:37 51°17.544 2°53.537 1.5 28 16.6 101110 84
2008-07-18 08:34:42 51°17.555 2°53.55 2 54 16.6 101110 84
2008-07-18 08:34:47 51°17.567 2°53.562 2.2 24 16.6 101100 84
2008-07-18 08:34:52 51°17.578 2°53.574 2 60 16.6 101100 84
2008-07-18 08:34:57 51°17.589 2°53.587 2.3 29 16.7 101100 84
2008-07-18 08:35:02 51°17.6 2°53.599 2.5 51 16.7 101100 84
2008-07-18 08:35:07 51°17.612 2°53.611 2.2 21 16.7 101100 84
2008-07-18 08:35:13 51°17.625 2°53.625 2.2 75 16.7 101100 84
2008-07-18 08:35:17 51°17.634 2°53.636 1.8 26 16.7 101100 84
2008-07-18 08:35:22 51°17.646 2°53.647 2.1 57 16.7 101100 84
2008-07-18 08:35:27 51°17.657 2°53.659 1.6 24 16.7 101100 84
2008-07-18 08:35:32 51°17.668 2°53.671 2.5 58 16.7 101100 84
2008-07-18 08:35:37 51°17.68 2°53.683 2.8 26 16.7 101100 83
2008-07-18 08:35:42 51°17.691 2°53.695 1.7 58 16.7 101100 83
2008-07-18 08:35:47 51°17.703 2°53.707 1.9 26 16.7 101100 83
2008-07-18 08:35:52 51°17.714 2°53.719 2.1 53 16.7 101100 83
2008-07-18 08:35:57 51°17.725 2°53.731 2.6 27 16.7 101100 83
2008-07-18 08:36:02 51°17.736 2°53.744 1.5 59 16.7 101100 83
2008-07-18 08:36:07 51°17.748 2°53.757 2.3 27 16.7 101100 83
2008-07-18 08:36:12 51°17.759 2°53.768 2.4 80 16.7 101100 83
2008-07-18 08:36:17 51°17.77 2°53.781 2.4 27 16.7 101100 84
2008-07-18 08:36:22 51°17.782 2°53.792 2.6 52 16.7 101100 84
2008-07-18 08:36:27 51°17.793 2°53.804 2.7 27 16.7 101100 84
2008-07-18 08:36:33 51°17.807 2°53.818 2.9 57 16.7 101100 84
2008-07-18 08:36:37 51°17.817 2°53.827 2.6 27 16.7 101100 84
2008-07-18 08:36:42 51°17.828 2°53.838 3.1 53 16.7 101100 84
2008-07-18 08:36:47 51°17.84 2°53.85 2.8 27 16.7 101100 84
2008-07-18 08:36:52 51°17.851 2°53.862 2.8 52 16.7 101100 84
2008-07-18 08:36:57 51°17.862 2°53.874 2.7 23 16.7 101100 83
2008-07-18 08:37:02 51°17.874 2°53.886 3 51 16.7 101100 83
2008-07-18 08:37:07 51°17.885 2°53.898 2.7 27 16.7 101100 83
2008-07-18 08:37:13 51°17.899 2°53.912 3.8 77 16.7 101100 83
2008-07-18 08:37:17 51°17.908 2°53.921 2.9 29 16.6 101100 83
2008-07-18 08:37:22 51°17.92 2°53.933 2.9 53 16.6 101100 83
2008-07-18 08:37:27 51°17.931 2°53.945 2.5 22 16.7 101100 83
2008-07-18 08:37:33 51°17.945 2°53.96 2.6 56 16.7 101100 83
2008-07-18 08:37:37 51°17.954 2°53.969 2.7 27 16.7 101100 83
2008-07-18 08:37:42 51°17.966 2°53.981 1.9 59 16.7 101100 83
2008-07-18 08:37:47 51°17.977 2°53.993 2.2 23 16.6 101100 85
2008-07-18 08:37:52 51°17.989 2°54.004 2.4 59 16.6 101100 85
2008-07-18 08:37:57 51°18 2°54.015 2.6 28 16.6 101100 87
2008-07-18 08:38:02 51°18.012 2°54.027 2.9 51 16.6 101100 87
2008-07-18 08:38:07 51°18.024 2°54.038 2.9 23 16.6 101100 88
2008-07-18 08:38:12 51°18.035 2°54.049 3.5 74 16.6 101100 88
2008-07-18 08:38:17 51°18.047 2°54.06 3.1 29 16.6 101100 88
2008-07-18 08:38:22 51°18.059 2°54.071 2.5 53 16.6 101100 88
2008-07-18 08:38:27 51°18.071 2°54.083 2.2 23 16.6 101100 88
2008-07-18 08:38:32 51°18.083 2°54.094 2.3 58 16.6 101100 88
2008-07-18 08:38:37 51°18.094 2°54.104 2.6 26 16.6 101100 88
2008-07-18 08:38:42 51°18.104 2°54.114 3 57 16.6 101100 88
2008-07-18 08:38:47 51°18.113 2°54.124 4.3 20 16.6 101100 88
2008-07-18 08:38:52 51°18.121 2°54.132 2.8 52 16.6 101100 88
2008-07-18 08:38:57 51°18.128 2°54.141 3.5 22 16.6 101100 88
2008-07-18 08:39:02 51°18.136 2°54.149 4 52 16.6 101100 88
2008-07-18 08:39:07 51°18.141 2°54.158 3.4 21 16.6 101100 88
2008-07-18 08:39:13 51°18.148 2°54.166 2.8 58 16.6 101100 88
2008-07-18 08:39:17 51°18.152 2°54.172 3.8 28 16.6 101100 89
2008-07-18 08:39:22 51°18.157 2°54.179 3.6 55 16.6 101100 89
2008-07-18 08:39:27 51°18.161 2°54.186 4 29 16.6 101100 89
2008-07-18 08:39:33 51°18.165 2°54.194 3.5 56 16.6 101100 89
2008-07-18 08:39:37 51°18.168 2°54.199 3.4 28 16.6 101100 89
2008-07-18 08:39:42 51°18.172 2°54.205 3.8 54 16.6 101100 89
2008-07-18 08:39:47 51°18.175 2°54.211 4 28 16.6 101100 90
2008-07-18 08:39:53 51°18.178 2°54.218 4.2 57 16.6 101100 90
2008-07-18 08:39:57 51°18.18 2°54.222 6 26 16.7 101100 90
2008-07-18 08:40:02 51°18.183 2°54.227 5.9 58 16.7 101100 90
2008-07-18 08:40:07 51°18.185 2°54.232 5.3 26 16.7 101100 90
2008-07-18 08:40:12 51°18.187 2°54.237 5.8 82 16.7 101100 90
2008-07-18 08:40:17 51°18.189 2°54.242 6.2 27 16.7 101100 89
2008-07-18 08:40:22 51°18.191 2°54.246 5.5 51 16.7 101100 89
2008-07-18 08:40:27 51°18.192 2°54.25 6.9 21 16.7 101100 88
2008-07-18 08:40:32 51°18.194 2°54.255 7 53 16.7 101100 88
2008-07-18 08:40:37 51°18.195 2°54.259 7.2 24 16.6 101100 88
2008-07-18 08:40:42 51°18.195 2°54.262 7.2 56 16.6 101100 88
2008-07-18 08:40:47 51°18.196 2°54.266 6.8 23 16.6 101100 88
2008-07-18 08:40:52 51°18.197 2°54.269 7 57 16.6 101100 88
2008-07-18 08:40:57 51°18.197 2°54.273 6.9 27 16.6 101110 88
2008-07-18 08:41:02 51°18.197 2°54.275 6.8 57 16.6 101110 88
2008-07-18 08:41:07 51°18.198 2°54.278 6.8 29 16.6 101110 88
2008-07-18 08:41:13 51°18.198 2°54.28 6.4 80 16.6 101110 88
2008-07-18 08:41:17 51°18.198 2°54.282 6.3 23 16.6 101100 88
2008-07-18 08:41:22 51°18.198 2°54.283 6.3 57 16.6 101100 88
2008-07-18 08:41:27 51°18.198 2°54.285 7.3 29 16.6 101100 88
2008-07-18 08:41:32 51°18.198 2°54.286 6.7 56 16.6 101100 88
2008-07-18 08:41:37 51°18.198 2°54.287 6.1 22 16.6 101100 89
2008-07-18 08:41:42 51°18.198 2°54.288 5.7 58 16.6 101100 89
2008-07-18 08:41:47 51°18.198 2°54.289 5.1 26 16.6 101100 89
2008-07-18 08:41:53 51°18.198 2°54.289 4.3 54 16.6 101100 89
2008-07-18 08:41:57 51°18.198 2°54.29 4.1 30 16.6 101100 89
2008-07-18 08:42:02 51°18.197 2°54.29 5.4 52 16.6 101100 89
2008-07-18 08:42:07 51°18.197 2°54.29 5.3 25 16.6 101100 89
2008-07-18 08:42:13 51°18.196 2°54.291 5.6 81 16.6 101100 89
2008-07-18 08:42:17 51°18.196 2°54.291 6.6 23 16.6 101100 89
2008-07-18 08:42:22 51°18.196 2°54.291 4.8 56 16.6 101100 89
2008-07-18 08:42:27 51°18.195 2°54.291 7.3 22 16.6 101090 89
2008-07-18 08:42:32 51°18.195 2°54.291 7.9 54 16.6 101090 89
2008-07-18 08:42:37 51°18.195 2°54.291 8.3 27 16.6 101090 89
2008-07-18 08:42:42 51°18.195 2°54.292 7.7 58 16.6 101090 89
2008-07-18 08:42:47 51°18.195 2°54.292 8.5 23 16.5 101090 88
2008-07-18 08:42:52 51°18.194 2°54.292 8.6 57 16.5 101090 88
2008-07-18 08:42:57 51°18.194 2°54.293 7.6 28 16.5 101100 88
2008-07-18 08:43:02 51°18.194 2°54.293 7.3 60 16.5 101100 88
2008-07-18 08:43:07 51°18.194 2°54.293 7.2 28 16.5 101100 88
2008-07-18 08:43:12 51°18.194 2°54.293 8.6 57 16.5 101100 88
2008-07-18 08:43:17 51°18.194 2°54.293 7 27 16.5 101090 88
2008-07-18 08:43:22 51°18.194 2°54.293 6.8 57 16.5 101090 88
2008-07-18 08:43:27 51°18.194 2°54.293 7.9 22 16.5 101090 88
2008-07-18 08:43:32 51°18.194 2°54.293 10.1 57 16.5 101090 88
2008-07-18 08:43:37 51°18.194 2°54.293 8.1 28 16.5 101090 88
2008-07-18 08:43:42 51°18.194 2°54.293 6.8 57 16.5 101090 88
2008-07-18 08:43:47 51°18.194 2°54.293 7.6 27 16.5 101090 88
2008-07-18 08:43:52 51°18.194 2°54.293 9.5 54 16.5 101090 88
2008-07-18 08:43:57 51°18.194 2°54.293 7.3 22 16.5 101090 87
2008-07-18 08:44:02 51°18.194 2°54.293 7.4 52 16.5 101090 87
2008-07-18 08:44:07 51°18.194 2°54.293 10.3 22 16.4 101090 87
2008-07-18 08:44:13 51°18.194 2°54.293 7.5 79 16.4 101090 87
2008-07-18 08:44:17 51°18.195 2°54.293 8.8 23 16.5 101090 88
2008-07-18 08:44:22 51°18.195 2°54.293 6.7 56 16.5 101090 88
2008-07-18 08:44:27 51°18.195 2°54.293 6.9 20 16.4 101090 88
2008-07-18 08:44:32 51°18.195 2°54.293 7 53 16.4 101090 88
2008-07-18 08:44:37 51°18.195 2°54.292 9.3 27 16.4 101090 87
2008-07-18 08:44:42 51°18.196 2°54.292 6.5 58 16.4 101090 87
2008-07-18 08:44:47 51°18.196 2°54.292 6.4 17 16.4 101090 87
2008-07-18 08:44:52 51°18.196 2°54.291 6.6 311 16.4 101090 87
2008-07-18 08:44:57 51°18.197 2°54.291 7.2 268 16.4 101090 88
2008-07-18 08:45:02 51°18.197 2°54.291 5.1 311 16.4 101090 88
2008-07-18 08:45:07 51°18.197 2°54.29 6.5 268 16.5 101080 88
2008-07-18 08:45:12 51°18.198 2°54.289 7.6 283 16.5 101080 88
2008-07-18 08:45:17 51°18.198 2°54.289 9.1 27 16.5 101090 89
2008-07-18 08:45:22 51°18.199 2°54.288 5.9 309 16.5 101090 89
2008-07-18 08:45:27 51°18.199 2°54.287 9.8 268 16.5 101080 89
2008-07-18 08:45:32 51°18.2 2°54.286 7.4 303 16.5 101080 89
2008-07-18 08:45:37 51°18.201 2°54.285 7 263 16.5 101080 89
2008-07-18 08:45:42 51°18.201 2°54.285 6.1 303 16.5 101080 89
2008-07-18 08:45:47 51°18.202 2°54.284 7.5 265 16.5 101080 89
2008-07-18 08:45:52 51°18.202 2°54.282 8 305 16.5 101080 89
2008-07-18 08:45:57 51°18.203 2°54.282 5.9 262 16.5 101080 88
2008-07-18 08:46:02 51°18.204 2°54.28 6.1 309 16.5 101080 88
2008-07-18 08:46:07 51°18.204 2°54.279 5.2 265 16.5 101080 88
2008-07-18 08:46:13 51°18.205 2°54.277 8 303 16.5 101080 88
2008-07-18 08:46:17 51°18.206 2°54.276 6.3 261 16.5 101080 88
2008-07-18 08:46:22 51°18.206 2°54.274 8.6 306 16.5 101080 88
2008-07-18 08:46:27 51°18.207 2°54.273 9.6 261 16.5 101080 88
2008-07-18 08:46:32 51°18.208 2°54.271 10.8 309 16.5 101080 88
2008-07-18 08:46:37 51°18.208 2°54.27 10.2 258 16.5 101080 88
2008-07-18 08:46:42 51°18.209 2°54.268 8.3 307 16.5 101080 88
2008-07-18 08:46:47 51°18.21 2°54.266 11.4 259 16.5 101080 88
2008-07-18 08:46:53 51°18.21 2°54.264 12.5 306 16.5 101080 88
2008-07-18 08:46:57 51°18.211 2°54.263 9 259 16.5 101090 89
2008-07-18 08:47:02 51°18.212 2°54.261 11.8 307 16.5 101090 89
2008-07-18 08:47:07 51°18.213 2°54.259 12.5 258 16.5 101080 89
2008-07-18 08:47:12 51°18.213 2°54.257 9.3 304 16.5 101080 89
2008-07-18 08:47:17 51°18.214 2°54.255 11.8 259 16.5 101080 88
2008-07-18 08:47:22 51°18.215 2°54.254 12.5 303 16.5 101080 88
2008-07-18 08:47:27 51°18.216 2°54.252 7.4 260 16.5 101080 88
2008-07-18 08:47:32 51°18.216 2°54.25 11 302 16.5 101080 88
2008-07-18 08:47:37 51°18.217 2°54.248 12.8 257 16.5 101090 88
2008-07-18 08:47:42 51°18.218 2°54.246 11.4 307 16.5 101090 88
2008-07-18 08:47:47 51°18.219 2°54.243 8.2 260 16.5 101080 88
2008-07-18 08:47:52 51°18.219 2°54.241 12.1 307 16.5 101080 88
2008-07-18 08:47:57 51°18.22 2°54.239 8.5 260 16.5 101090 88
2008-07-18 08:48:02 51°18.221 2°54.237 12.7 305 16.5 101090 88
2008-07-18 08:48:07 51°18.222 2°54.235 8.3 257 16.5 101080 88
2008-07-18 08:48:13 51°18.223 2°54.232 8.8 280 16.5 101080 88
2008-07-18 08:48:17 51°18.223 2°54.23 10.8 258 16.5 101080 88
2008-07-18 08:48:22 51°18.224 2°54.228 11.1 306 16.5 101080 88
2008-07-18 08:48:27 51°18.225 2°54.225 7.7 257 16.5 101080 88
2008-07-18 08:48:32 51°18.226 2°54.223 7.3 305 16.5 101080 88
2008-07-18 08:48:37 51°18.227 2°54.22 7.2 260 16.6 101080 88
2008-07-18 08:48:42 51°18.227 2°54.218 9.5 306 16.6 101080 88
2008-07-18 08:48:47 51°18.228 2°54.216 10.4 256 16.6 101080 88
2008-07-18 08:48:53 51°18.229 2°54.213 11.4 308 16.6 101080 88
2008-07-18 08:48:57 51°18.23 2°54.21 8 256 16.6 101080 89
2008-07-18 08:49:02 51°18.231 2°54.208 11.8 307 16.6 101080 89
2008-07-18 08:49:07 51°18.231 2°54.206 9.4 259 16.6 101080 89
2008-07-18 08:49:12 51°18.232 2°54.203 7.9 284 16.6 101080 89
2008-07-18 08:49:17 51°18.233 2°54.2 8.5 259 16.7 101080 89
2008-07-18 08:49:22 51°18.234 2°54.198 9.9 307 16.7 101080 89
2008-07-18 08:49:27 51°18.235 2°54.195 10.9 259 16.6 101090 89
2008-07-18 08:49:32 51°18.236 2°54.193 7.3 301 16.6 101090 89
2008-07-18 08:49:37 51°18.236 2°54.19 7.7 255 16.7 101090 89
2008-07-18 08:49:42 51°18.237 2°54.188 11.9 303 16.7 101090 89
2008-07-18 08:49:47 51°18.238 2°54.185 12.2 256 16.7 101080 89
2008-07-18 08:49:52 51°18.239 2°54.183 8.6 303 16.7 101080 89
2008-07-18 08:49:57 51°18.24 2°54.18 8.2 258 16.7 101090 89
2008-07-18 08:50:02 51°18.241 2°54.178 8.7 308 16.7 101090 89
2008-07-18 08:50:07 51°18.242 2°54.175 8.2 254 16.7 101080 89
2008-07-18 08:50:13 51°18.243 2°54.172 11.9 285 16.7 101080 89
2008-07-18 08:50:17 51°18.243 2°54.17 8.1 254 16.7 101080 89
2008-07-18 08:50:22 51°18.244 2°54.167 11.8 309 16.7 101080 89
2008-07-18 08:50:27 51°18.245 2°54.165 10.4 252 16.7 101080 89
2008-07-18 08:50:32 51°18.246 2°54.162 9.4 306 16.7 101080 89
2008-07-18 08:50:37 51°18.247 2°54.159 12.9 254 16.7 101080 89
2008-07-18 08:50:42 51°18.248 2°54.156 9.2 303 16.7 101080 89
2008-07-18 08:50:47 51°18.249 2°54.153 11.7 253 16.7 101080 89
2008-07-18 08:50:53 51°18.25 2°54.15 8.2 303 16.7 101080 89
2008-07-18 08:50:57 51°18.251 2°54.148 8.5 252 16.8 101080 89
2008-07-18 08:51:02 51°18.252 2°54.145 11.8 302 16.8 101080 89
2008-07-18 08:51:07 51°18.254 2°54.142 12.1 255 16.8 101080 89
2008-07-18 08:51:13 51°18.255 2°54.139 11.7 282 16.8 101080 89
2008-07-18 08:51:17 51°18.256 2°54.136 10.7 253 16.8 101080 89
2008-07-18 08:51:22 51°18.258 2°54.133 11.1 307 16.8 101080 89
2008-07-18 08:51:27 51°18.259 2°54.131 10.9 252 16.7 101080 89
2008-07-18 08:51:32 51°18.261 2°54.128 8.5 301 16.7 101080 89
2008-07-18 08:51:37 51°18.262 2°54.125 7.7 258 16.7 101080 88
2008-07-18 08:51:42 51°18.264 2°54.122 11 301 16.7 101080 88
2008-07-18 08:51:47 51°18.265 2°54.119 11.4 255 16.7 101080 88
2008-07-18 08:51:52 51°18.267 2°54.116 11.6 301 16.7 101080 88
2008-07-18 08:51:57 51°18.268 2°54.113 12.7 254 16.7 101080 89
2008-07-18 08:52:02 51°18.27 2°54.11 8.8 305 16.7 101080 89
2008-07-18 08:52:07 51°18.272 2°54.107 8.5 257 16.7 101090 89
2008-07-18 08:52:13 51°18.274 2°54.104 8.6 278 16.7 101090 89
2008-07-18 08:52:17 51°18.275 2°54.101 11.4 258 16.7 101080 89
2008-07-18 08:52:22 51°18.277 2°54.099 11.2 307 16.7 101080 89
2008-07-18 08:52:27 51°18.279 2°54.096 10.9 260 16.7 101080 88
2008-07-18 08:52:32 51°18.281 2°54.093 11.3 307 16.7 101080 88
2008-07-18 08:52:37 51°18.283 2°54.09 9.4 259 16.7 101080 88
2008-07-18 08:52:42 51°18.284 2°54.087 8.3 305 16.7 101080 88
2008-07-18 08:52:47 51°18.286 2°54.084 10.6 254 16.7 101080 88
2008-07-18 08:52:52 51°18.288 2°54.081 10.9 309 16.7 101080 88
2008-07-18 08:52:57 51°18.29 2°54.078 10.2 259 16.7 101080 89
2008-07-18 08:53:02 51°18.292 2°54.075 7.8 303 16.7 101080 89
2008-07-18 08:53:07 51°18.294 2°54.072 7 259 16.7 101080 89
2008-07-18 08:53:13 51°18.296 2°54.069 6.2 285 16.7 101080 89
2008-07-18 08:53:17 51°18.298 2°54.066 7.6 262 16.7 101080 89
2008-07-18 08:53:22 51°18.3 2°54.064 8.3 305 16.7 101080 89
2008-07-18 08:53:27 51°18.302 2°54.061 8.5 261 16.7 101080 88
2008-07-18 08:53:32 51°18.304 2°54.058 8 306 16.7 101080 88
2008-07-18 08:53:37 51°18.306 2°54.055 10.1 257 16.7 101080 89
2008-07-18 08:53:42 51°18.308 2°54.052 7.7 300 16.7 101080 89
2008-07-18 08:53:47 51°18.31 2°54.049 7.7 256 16.7 101080 89
2008-07-18 08:53:52 51°18.312 2°54.046 7.8 300 16.7 101080 89
2008-07-18 08:53:57 51°18.314 2°54.043 11.8 257 16.8 101080 89
2008-07-18 08:54:02 51°18.316 2°54.039 11.2 303 16.8 101080 89
2008-07-18 08:54:07 51°18.318 2°54.036 7.9 258 16.7 101080 89
2008-07-18 08:54:12 51°18.32 2°54.033 9.7 307 16.7 101080 89
2008-07-18 08:54:17 51°18.322 2°54.03 9.5 260 16.8 101090 89
2008-07-18 08:54:22 51°18.324 2°54.027 7.6 301 16.8 101090 89
2008-07-18 08:54:27 51°18.326 2°54.024 8.9 255 16.8 101080 89
2008-07-18 08:54:32 51°18.328 2°54.021 8.7 307 16.8 101080 89
2008-07-18 08:54:37 51°18.33 2°54.017 7.9 258 16.8 101080 88
2008-07-18 08:54:42 51°18.332 2°54.013 8.5 307 16.8 101080 88
2008-07-18 08:54:47 51°18.334 2°54.01 6.5 252 16.7 101080 88
2008-07-18 08:54:52 51°18.336 2°54.006 9.3 300 16.7 101080 88
2008-07-18 08:54:57 51°18.338 2°54.003 9.7 255 16.7 101080 89
2008-07-18 08:55:02 51°18.34 2°53.999 10.4 309 16.7 101080 89
2008-07-18 08:55:07 51°18.342 2°53.996 10.8 256 16.8 101090 89
2008-07-18 08:55:13 51°18.344 2°53.992 6.5 279 16.8 101090 89
2008-07-18 08:55:17 51°18.345 2°53.989 10.7 256 16.8 101080 89
2008-07-18 08:55:22 51°18.348 2°53.986 10.6 301 16.8 101080 89
2008-07-18 08:55:27 51°18.35 2°53.983 7.2 259 16.8 101080 89
2008-07-18 08:55:32 51°18.352 2°53.98 10.4 309 16.8 101080 89
2008-07-18 08:55:37 51°18.354 2°53.978 6.5 262 16.8 101080 89
2008-07-18 08:55:42 51°18.356 2°53.975 9.9 305 16.8 101080 89
2008-07-18 08:55:47 51°18.358 2°53.973 10.3 256 16.8 101080 89
2008-07-18 08:55:53 51°18.361 2°53.969 8.7 307 16.8 101080 89
2008-07-18 08:55:57 51°18.363 2°53.967 6.6 260 16.8 101090 89
2008-07-18 08:56:02 51°18.365 2°53.965 5.6 305 16.8 101090 89
2008-07-18 08:56:07 51°18.368 2°53.963 7.7 262 16.8 101090 89
2008-07-18 08:56:12 51°18.37 2°53.96 6.6 304 16.8 101090 89
2008-07-18 08:56:17 51°18.372 2°53.958 6.1 261 16.8 101080 89
2008-07-18 08:56:22 51°18.374 2°53.955 7.2 307 16.8 101080 89
2008-07-18 08:56:27 51°18.377 2°53.953 7.5 257 16.8 101090 88
2008-07-18 08:56:32 51°18.379 2°53.951 9.5 303 16.8 101090 88
2008-07-18 08:56:37 51°18.381 2°53.949 4.4 261 16.7 101080 88
2008-07-18 08:56:42 51°18.384 2°53.947 8.8 301 16.7 101080 88
2008-07-18 08:56:47 51°18.386 2°53.945 7.2 263 16.8 101090 88
2008-07-18 08:56:52 51°18.388 2°53.942 4.6 305 16.8 101090 88
2008-07-18 08:56:57 51°18.391 2°53.94 7.2 260 16.8 101090 88
2008-07-18 08:57:02 51°18.393 2°53.938 6.7 302 16.8 101090 88
2008-07-18 08:57:07 51°18.396 2°53.936 4.2 264 16.8 101090 88
2008-07-18 08:57:12 51°18.398 2°53.933 5.2 281 16.8 101090 88
2008-07-18 08:57:17 51°18.4 2°53.931 6.8 262 16.8 101090 88
2008-07-18 08:57:22 51°18.402 2°53.928 6.6 308 16.8 101090 88
2008-07-18 08:57:27 51°18.405 2°53.926 6.5 262 16.8 101080 88
2008-07-18 08:57:32 51°18.407 2°53.923 4.5 302 16.8 101080 88
2008-07-18 08:57:37 51°18.409 2°53.921 5.2 266 16.8 101090 86
2008-07-18 08:57:42 51°18.412 2°53.919 5.6 302 16.8 101090 86
2008-07-18 08:57:47 51°18.414 2°53.916 4.9 264 16.8 101090 86
2008-07-18 08:57:53 51°18.417 2°53.914 8.4 309 16.8 101090 86
2008-07-18 08:57:57 51°18.419 2°53.912 4.3 262 16.8 101090 85
2008-07-18 08:58:02 51°18.422 2°53.91 8.5 308 16.8 101090 85
2008-07-18 08:58:07 51°18.424 2°53.907 6.1 261 16.8 101080 85
2008-07-18 08:58:12 51°18.426 2°53.905 8.5 307 16.8 101080 85
2008-07-18 08:58:17 51°18.429 2°53.903 8.7 260 16.8 101090 86
2008-07-18 08:58:22 51°18.431 2°53.9 11.1 300 16.8 101090 86
2008-07-18 08:58:27 51°18.434 2°53.898 11.3 256 16.9 101090 86
2008-07-18 08:58:32 51°18.436 2°53.895 7.8 300 16.9 101090 86
2008-07-18 08:58:37 51°18.439 2°53.893 9.7 259 16.8 101080 86
2008-07-18 08:58:42 51°18.441 2°53.891 7.4 303 16.8 101080 86
2008-07-18 08:58:47 51°18.444 2°53.888 6.9 260 16.9 101090 86
2008-07-18 08:58:52 51°18.446 2°53.886 5.7 305 16.9 101090 86
2008-07-18 08:58:57 51°18.449 2°53.884 9.1 260 16.9 101080 86
2008-07-18 08:59:02 51°18.451 2°53.881 5.3 308 16.9 101080 86
2008-07-18 08:59:07 51°18.454 2°53.879 6.1 259 16.9 101080 85
2008-07-18 08:59:12 51°18.456 2°53.877 9.4 283 16.9 101080 85
2008-07-18 08:59:17 51°18.459 2°53.875 7.8 260 16.9 101080 85
2008-07-18 08:59:22 51°18.461 2°53.872 6.9 301 16.9 101080 85
2008-07-18 08:59:27 51°18.463 2°53.87 10 259 16.9 101090 85
2008-07-18 08:59:32 51°18.466 2°53.867 9 307 16.9 101090 85
2008-07-18 08:59:37 51°18.468 2°53.865 9.4 257 16.9 101090 85
2008-07-18 08:59:42 51°18.47 2°53.862 9.2 303 16.9 101090 85
2008-07-18 08:59:47 51°18.472 2°53.86 8.8 259 16.9 101080 85
2008-07-18 08:59:53 51°18.475 2°53.857 9.6 301 16.9 101080 85
2008-07-18 08:59:57 51°18.477 2°53.855 11.7 258 16.8 101080 85
2008-07-18 09:00:02 51°18.479 2°53.853 9.6 308 16.8 101080 85
2008-07-18 09:00:07 51°18.481 2°53.852 9.4 261 16.8 101080 84
2008-07-18 09:00:12 51°18.483 2°53.85 6.4 308 16.8 101080 84
2008-07-18 09:00:17 51°18.486 2°53.847 8.9 254 16.8 101080 84
2008-07-18 09:00:22 51°18.488 2°53.845 11.2 309 16.8 101080 84
2008-07-18 09:00:27 51°18.491 2°53.843 11.9 258 16.8 101080 84
2008-07-18 09:00:33 51°18.494 2°53.84 11.6 304 16.8 101080 84
2008-07-18 09:00:37 51°18.496 2°53.838 10.8 258 16.8 101090 84
2008-07-18 09:00:42 51°18.498 2°53.836 10.4 307 16.8 101090 84
2008-07-18 09:00:47 51°18.501 2°53.833 8.2 263 16.8 101090 84
2008-07-18 09:00:52 51°18.503 2°53.831 7.4 309 16.8 101090 84
2008-07-18 09:00:57 51°18.505 2°53.828 9.5 263 16.8 101090 85
2008-07-18 09:01:02 51°18.508 2°53.826 6.3 305 16.8 101090 85
2008-07-18 09:01:07 51°18.51 2°53.823 7.6 263 16.9 101090 85
2008-07-18 09:01:12 51°18.513 2°53.821 6.7 284 16.9 101090 85
2008-07-18 09:01:17 51°18.515 2°53.819 6 257 16.9 101090 84
2008-07-18 09:01:22 51°18.517 2°53.817 9.2 306 16.9 101090 84
2008-07-18 09:01:27 51°18.519 2°53.814 10.8 258 16.9 101080 84
2008-07-18 09:01:32 51°18.522 2°53.812 7.7 302 16.9 101080 84
2008-07-18 09:01:37 51°18.524 2°53.81 9.5 260 16.9 101090 84
2008-07-18 09:01:42 51°18.527 2°53.808 10.1 308 16.9 101090 84
2008-07-18 09:01:47 51°18.529 2°53.806 6.9 262 16.9 101090 85
2008-07-18 09:01:53 51°18.532 2°53.803 10.3 309 16.9 101090 85
2008-07-18 09:01:57 51°18.534 2°53.801 10.2 262 16.9 101080 85
2008-07-18 09:02:02 51°18.537 2°53.799 8.7 305 16.9 101080 85
2008-07-18 09:02:07 51°18.539 2°53.797 5.7 263 17 101090 85
2008-07-18 09:02:12 51°18.542 2°53.795 7.8 303 17 101090 85
2008-07-18 09:02:17 51°18.544 2°53.792 9.3 261 17 101090 85
2008-07-18 09:02:22 51°18.547 2°53.79 6.6 308 17 101090 85
2008-07-18 09:02:27 51°18.549 2°53.788 9.5 261 16.9 101090 84
2008-07-18 09:02:32 51°18.552 2°53.786 7.4 301 16.9 101090 84
2008-07-18 09:02:37 51°18.554 2°53.783 7.7 259 16.9 101080 83
2008-07-18 09:02:42 51°18.557 2°53.781 10 307 16.9 101080 83
2008-07-18 09:02:47 51°18.559 2°53.778 7.4 260 16.9 101090 84
2008-07-18 09:02:53 51°18.562 2°53.776 9.6 304 16.9 101090 84
2008-07-18 09:02:57 51°18.564 2°53.774 9 259 17 101090 84
2008-07-18 09:03:02 51°18.566 2°53.772 7.2 303 17 101090 84
2008-07-18 09:03:07 51°18.569 2°53.77 7.4 262 16.9 101090 83
2008-07-18 09:03:12 51°18.571 2°53.768 8.4 282 16.9 101090 83
2008-07-18 09:03:17 51°18.574 2°53.765 8.2 255 16.9 101090 83
2008-07-18 09:03:22 51°18.576 2°53.763 11.1 305 16.9 101090 83
2008-07-18 09:03:27 51°18.579 2°53.76 11.3 250 16.9 101090 82
2008-07-18 09:03:32 51°18.581 2°53.758 10.7 304 16.9 101090 82
2008-07-18 09:03:37 51°18.584 2°53.755 8.4 254 17 101090 83
2008-07-18 09:03:42 51°18.586 2°53.753 12.7 304 17 101090 83
2008-07-18 09:03:47 51°18.588 2°53.751 10.4 252 17 101080 83
2008-07-18 09:03:52 51°18.591 2°53.748 8.5 306 17 101080 83
2008-07-18 09:03:57 51°18.593 2°53.746 7.9 253 17 101080 83
2008-07-18 09:04:02 51°18.596 2°53.744 8.6 303 17 101080 83
2008-07-18 09:04:07 51°18.598 2°53.742 11.8 255 17 101090 83
2008-07-18 09:04:12 51°18.601 2°53.74 8.4 303 17 101090 83
2008-07-18 09:04:17 51°18.603 2°53.739 9.7 256 17 101080 82
2008-07-18 09:04:22 51°18.606 2°53.737 10.8 304 17 101080 82
2008-07-18 09:04:27 51°18.609 2°53.737 10.3 260 17 101090 82
2008-07-18 09:04:32 51°18.612 2°53.736 6.8 300 17 101090 82
2008-07-18 09:04:37 51°18.615 2°53.737 8.2 267 17.1 101080 82
2008-07-18 09:04:42 51°18.619 2°53.737 9.5 310 17.1 101080 82
2008-07-18 09:04:47 51°18.622 2°53.739 9 27 17 101090 82
2008-07-18 09:04:53 51°18.626 2°53.742 7.1 58 17 101090 82
2008-07-18 09:04:57 51°18.628 2°53.744 7 25 17 101090 81
2008-07-18 09:05:02 51°18.631 2°53.747 7.4 53 17 101090 81
2008-07-18 09:05:07 51°18.633 2°53.751 7 26 17 101090 80
2008-07-18 09:05:12 51°18.635 2°53.756 8.8 80 17 101090 80
2008-07-18 09:05:17 51°18.637 2°53.76 6.7 21 16.9 101100 80
2008-07-18 09:05:22 51°18.638 2°53.763 6.9 57 16.9 101100 80
2008-07-18 09:05:27 51°18.639 2°53.767 8.2 22 16.9 101090 80
2008-07-18 09:05:32 51°18.64 2°53.77 6.8 60 16.9 101090 80
2008-07-18 09:05:37 51°18.64 2°53.773 6.9 22 16.9 101100 79
2008-07-18 09:05:42 51°18.64 2°53.775 6.9 54 16.9 101100 79
2008-07-18 09:05:47 51°18.64 2°53.778 7.8 26 16.9 101100 79
2008-07-18 09:05:52 51°18.64 2°53.78 5.7 59 16.9 101100 79
2008-07-18 09:05:57 51°18.64 2°53.782 5.1 23 16.8 101100 79
2008-07-18 09:06:02 51°18.64 2°53.783 4.5 58 16.8 101100 79
2008-07-18 09:06:07 51°18.639 2°53.784 4.9 26 16.8 101090 79
2008-07-18 09:06:12 51°18.639 2°53.786 5.1 56 16.8 101090 79
2008-07-18 09:06:17 51°18.638 2°53.786 6.6 22 16.7 101100 78
2008-07-18 09:06:22 51°18.638 2°53.787 5.5 54 16.7 101100 78
2008-07-18 09:06:27 51°18.637 2°53.788 6 20 16.7 101100 79
2008-07-18 09:06:32 51°18.637 2°53.789 7.7 58 16.7 101100 79
2008-07-18 09:06:37 51°18.636 2°53.79 6.4 26 16.8 101100 79
2008-07-18 09:06:42 51°18.635 2°53.79 6.7 56 16.8 101100 79
2008-07-18 09:06:47 51°18.635 2°53.79 6.4 27 16.8 101110 79
2008-07-18 09:06:53 51°18.634 2°53.79 5.7 51 16.8 101110 79
2008-07-18 09:06:57 51°18.633 2°53.79 6.4 29 16.7 101100 79
2008-07-18 09:07:02 51°18.632 2°53.789 7 58 16.7 101100 79
2008-07-18 09:07:07 51°18.631 2°53.789 7.1 20 16.8 101110 79
2008-07-18 09:07:12 51°18.631 2°53.789 6.2 76 16.8 101110 79
2008-07-18 09:07:17 51°18.63 2°53.789 7.3 27 16.7 101100 79
2008-07-18 09:07:22 51°18.629 2°53.788 6.9 60 16.7 101100 79
2008-07-18 09:07:27 51°18.628 2°53.787 6.7 27 16.7 101100 80
2008-07-18 09:07:32 51°18.627 2°53.785 6.8 54 16.7 101100 80
2008-07-18 09:07:37 51°18.626 2°53.783 8.8 26 16.7 101100 80
2008-07-18 09:07:42 51°18.625 2°53.78 7.4 53 16.7 101100 80
2008-07-18 09:07:47 51°18.624 2°53.778 7.4 26 16.8 101100 80
2008-07-18 09:07:52 51°18.623 2°53.776 7.8 58 16.8 101100 80
2008-07-18 09:07:57 51°18.622 2°53.774 8.5 24 16.7 101100 80
2008-07-18 09:08:03 51°18.621 2°53.772 6.9 57 16.7 101100 80
2008-07-18 09:08:09 51°18.619 2°53.769 6.5 24 16.7 101110 80
2008-07-18 09:08:14 51°18.618 2°53.768 7.4 55 16.7 101110 80
2008-07-18 09:08:20 51°18.617 2°53.766 6.4 24 16.6 101100 79
2008-07-18 09:08:26 51°18.616 2°53.765 6 59 16.6 101100 79
2008-07-18 09:08:31 51°18.615 2°53.764 6.4 27 16.6 101110 79
2008-07-18 09:08:36 51°18.614 2°53.763 8.4 59 16.6 101110 79
2008-07-18 09:08:41 51°18.613 2°53.762 8.5 26 16.6 101100 79
2008-07-18 09:08:45 51°18.612 2°53.762 7.5 52 16.6 101100 79
2008-07-18 09:08:50 51°18.612 2°53.762 6.9 23 16.6 101100 79
2008-07-18 09:08:56 51°18.611 2°53.762 7.5 54 16.6 101100 79
2008-07-18 09:09:00 51°18.611 2°53.762 8.5 26 16.6 101110 79
2008-07-18 09:09:05 51°18.61 2°53.762 6.9 57 16.6 101110 79
2008-07-18 09:09:10 51°18.61 2°53.762 6.7 27 16.6 101100 79
2008-07-18 09:09:15 51°18.61 2°53.763 7 76 16.6 101100 79
2008-07-18 09:09:20 51°18.61 2°53.764 6.4 23 16.5 101110 79
2008-07-18 09:09:25 51°18.609 2°53.765 5.7 53 16.5 101110 79
2008-07-18 09:09:30 51°18.609 2°53.766 5.5 22 16.5 101110 79
2008-07-18 09:09:35 51°18.609 2°53.768 5.1 56 16.5 101110 79
2008-07-18 09:09:40 51°18.609 2°53.769 4.3 21 16.5 101100 79
2008-07-18 09:09:45 51°18.609 2°53.77 4.9 52 16.5 101100 79
2008-07-18 09:09:49 51°18.609 2°53.771 5.6 26 16.5 101100 79
2008-07-18 09:09:54 51°18.609 2°53.773 4.6 56 16.5 101100 79
2008-07-18 09:10:00 51°18.608 2°53.774 5.5 26 16.5 101100 80
2008-07-18 09:10:05 51°18.608 2°53.776 5.6 52 16.5 101100 80
2008-07-18 09:10:09 51°18.608 2°53.777 5.6 22 16.5 101100 80
2008-07-18 09:10:14 51°18.608 2°53.778 3.3 81 16.5 101100 80
2008-07-18 09:10:19 51°18.608 2°53.78 5.8 28 16.6 101100 80
2008-07-18 09:10:24 51°18.608 2°53.781 5.5 57 16.6 101100 80
2008-07-18 09:10:29 51°18.608 2°53.783 6.8 21 16.6 101100 79
2008-07-18 09:10:34 51°18.608 2°53.784 7.1 53 16.6 101100 79
2008-07-18 09:10:39 51°18.608 2°53.786 7.7 23 16.6 101100 79
2008-07-18 09:10:44 51°18.608 2°53.787 7.4 51 16.6 101100 79
2008-07-18 09:10:49 51°18.609 2°53.788 7.6 20 16.6 101090 79
2008-07-18 09:10:53 51°18.609 2°53.789 7.5 58 16.6 101090 79
2008-07-18 09:10:58 51°18.609 2°53.79 9.4 24 16.6 101100 78
2008-07-18 09:11:03 51°18.609 2°53.791 7.9 54 16.6 101100 78
2008-07-18 09:11:08 51°18.609 2°53.793 8.4 21 16.5 101100 77
2008-07-18 09:11:13 51°18.609 2°53.794 9.9 59 16.5 101100 77
2008-07-18 09:11:18 51°18.61 2°53.795 8.2 29 16.5 101100 77
2008-07-18 09:11:23 51°18.61 2°53.796 9.1 55 16.5 101100 77
2008-07-18 09:11:28 51°18.61 2°53.797 7.2 27 16.6 101090 78
2008-07-18 09:11:33 51°18.61 2°53.798 8.2 57 16.6 101090 78
2008-07-18 09:11:38 51°18.611 2°53.799 8.1 26 16.5 101090 77
2008-07-18 09:11:43 51°18.611 2°53.8 7.6 57 16.5 101090 77
2008-07-18 09:11:47 51°18.611 2°53.8 9.6 27 16.5 101090 77
2008-07-18 09:11:53 51°18.611 2°53.801 9.7 58 16.5 101090 77
2008-07-18 09:11:57 51°18.611 2°53.802 10.2 21 16.5 101090 78
2008-07-18 09:12:02 51°18.611 2°53.802 10.4 57 16.5 101090 78
2008-07-18 09:12:07 51°18.611 2°53.803 8.2 29 16.5 101090 78
2008-07-18 09:12:13 51°18.612 2°53.804 8.9 80 16.5 101090 78
2008-07-18 09:12:17 51°18.612 2°53.804 8.5 30 16.6 101090 78
2008-07-18 09:12:22 51°18.612 2°53.804 9.3 57 16.6 101090 78
2008-07-18 09:12:27 51°18.612 2°53.805 9.8 30 16.6 101080 78
2008-07-18 09:12:32 51°18.612 2°53.805 7.8 58 16.6 101080 78
2008-07-18 09:12:37 51°18.612 2°53.805 8.4 270 16.6 101080 78
2008-07-18 09:12:42 51°18.612 2°53.805 8.5 61 16.6 101080 78
2008-07-18 09:12:47 51°18.612 2°53.806 9.2 25 16.6 101080 78
2008-07-18 09:12:52 51°18.612 2°53.806 9.3 303 16.6 101080 78
2008-07-18 09:12:57 51°18.611 2°53.807 9.4 331 16.6 101080 78
2008-07-18 09:13:02 51°18.611 2°53.807 7.5 304 16.6 101080 78
2008-07-18 09:13:07 51°18.611 2°53.807 9 267 16.6 101080 79
2008-07-18 09:13:12 51°18.611 2°53.808 8.1 63 16.6 101080 79
2008-07-18 09:13:17 51°18.611 2°53.808 9.1 269 16.6 101090 79
2008-07-18 09:13:22 51°18.611 2°53.808 7.8 308 16.6 101090 79
2008-07-18 09:13:27 51°18.61 2°53.808 9.3 26 16.6 101080 79
2008-07-18 09:13:32 51°18.61 2°53.808 9.9 306 16.6 101080 79
2008-07-18 09:13:37 51°18.61 2°53.808 9.4 25 16.7 101080 79
2008-07-18 09:13:42 51°18.609 2°53.808 9.8 307 16.7 101080 79
2008-07-18 09:13:47 51°18.609 2°53.808 10.3 269 16.7 101080 79
2008-07-18 09:13:53 51°18.609 2°53.808 9.1 302 16.7 101080 79
2008-07-18 09:13:57 51°18.608 2°53.808 8.6 267 16.7 101080 79
2008-07-18 09:14:02 51°18.608 2°53.808 10.3 301 16.7 101080 79
2008-07-18 09:14:07 51°18.608 2°53.808 8.6 266 16.7 101080 79
2008-07-18 09:14:12 51°18.608 2°53.807 7.7 280 16.7 101080 79
2008-07-18 09:14:17 51°18.607 2°53.808 7.2 267 16.7 101080 79
2008-07-18 09:14:22 51°18.607 2°53.808 7 308 16.7 101080 79
2008-07-18 09:14:27 51°18.606 2°53.808 6 266 16.7 101080 79
2008-07-18 09:14:32 51°18.606 2°53.808 7.5 307 16.7 101080 79
2008-07-18 09:14:37 51°18.606 2°53.808 8.1 264 16.7 101080 78
2008-07-18 09:14:42 51°18.605 2°53.808 7.9 304 16.7 101080 78
2008-07-18 09:14:47 51°18.605 2°53.808 7.6 262 16.7 101080 78
2008-07-18 09:14:52 51°18.604 2°53.808 7.5 301 16.7 101080 78
2008-07-18 09:14:57 51°18.604 2°53.808 9.5 262 16.7 101080 78
2008-07-18 09:15:02 51°18.604 2°53.808 7.9 303 16.7 101080 78
2008-07-18 09:15:07 51°18.603 2°53.808 6.3 262 16.6 101080 78
2008-07-18 09:15:12 51°18.603 2°53.808 7.7 303 16.6 101080 78
2008-07-18 09:15:17 51°18.603 2°53.808 8.8 263 16.7 101080 78
2008-07-18 09:15:22 51°18.602 2°53.808 9.1 302 16.7 101080 78
2008-07-18 09:15:27 51°18.602 2°53.808 10.2 257 16.7 101080 78
2008-07-18 09:15:32 51°18.601 2°53.808 8.1 308 16.7 101080 78
2008-07-18 09:15:37 51°18.601 2°53.808 7.1 263 16.7 101080 78
2008-07-18 09:15:42 51°18.601 2°53.808 8.3 306 16.7 101080 78
2008-07-18 09:15:47 51°18.6 2°53.808 13 260 16.7 101080 78
2008-07-18 09:15:53 51°18.6 2°53.808 13.2 303 16.7 101080 78
2008-07-18 09:15:57 51°18.6 2°53.808 12.4 258 16.7 101080 79
2008-07-18 09:16:02 51°18.6 2°53.808 11.8 307 16.7 101080 79
2008-07-18 09:16:07 51°18.6 2°53.808 12 257 16.8 101080 79
2008-07-18 09:16:12 51°18.6 2°53.807 8.6 284 16.8 101080 79
2008-07-18 09:16:17 51°18.6 2°53.807 11.3 259 16.8 101080 79
2008-07-18 09:16:22 51°18.6 2°53.807 9.8 306 16.8 101080 79
2008-07-18 09:16:27 51°18.6 2°53.806 12.3 259 16.8 101080 79
2008-07-18 09:16:32 51°18.6 2°53.806 10.7 301 16.8 101080 79
2008-07-18 09:16:37 51°18.6 2°53.806 13.8 257 16.8 101080 79
2008-07-18 09:16:42 51°18.6 2°53.805 9 306 16.8 101080 79
2008-07-18 09:16:47 51°18.6 2°53.805 9.9 261 16.8 101070 78
2008-07-18 09:16:52 51°18.6 2°53.805 12.5 307 16.8 101070 78
2008-07-18 09:16:57 51°18.6 2°53.804 9.7 259 16.8 101080 78
2008-07-18 09:17:02 51°18.6 2°53.804 11.3 304 16.8 101080 78
2008-07-18 09:17:07 51°18.601 2°53.803 10.8 260 16.8 101080 78
2008-07-18 09:17:12 51°18.601 2°53.803 12.4 301 16.8 101080 78
2008-07-18 09:17:17 51°18.601 2°53.802 9.3 258 16.8 101080 78
2008-07-18 09:17:22 51°18.601 2°53.802 12.5 304 16.8 101080 78
2008-07-18 09:17:27 51°18.601 2°53.802 10.9 256 16.8 101080 78
2008-07-18 09:17:32 51°18.601 2°53.801 10.2 301 16.8 101080 78
2008-07-18 09:17:37 51°18.601 2°53.801 9.3 259 16.8 101070 78
2008-07-18 09:17:42 51°18.601 2°53.801 10 301 16.8 101070 78
2008-07-18 09:17:47 51°18.601 2°53.801 13.2 254 16.8 101070 78
2008-07-18 09:17:53 51°18.601 2°53.8 10.6 307 16.8 101070 78
2008-07-18 09:17:57 51°18.601 2°53.8 11.9 259 16.8 101070 78
2008-07-18 09:18:02 51°18.601 2°53.799 10.8 301 16.8 101070 78
2008-07-18 09:18:07 51°18.601 2°53.799 12.5 261 16.9 101080 78
2008-07-18 09:18:12 51°18.601 2°53.799 12.9 280 16.9 101080 78
2008-07-18 09:18:17 51°18.601 2°53.799 12.9 257 16.9 101080 78
2008-07-18 09:18:22 51°18.601 2°53.799 12.5 304 16.9 101080 78
2008-07-18 09:18:27 51°18.601 2°53.798 12.1 258 16.9 101080 78
2008-07-18 09:18:33 51°18.601 2°53.798 9.3 304 16.9 101080 78
2008-07-18 09:18:37 51°18.601 2°53.798 13.4 257 16.9 101080 78
2008-07-18 09:18:42 51°18.601 2°53.798 12.6 306 16.9 101080 78
2008-07-18 09:18:47 51°18.601 2°53.797 10 260 16.9 101080 78
2008-07-18 09:18:52 51°18.601 2°53.797 9.4 306 16.9 101080 78
2008-07-18 09:18:57 51°18.601 2°53.797 8.7 260 16.9 101080 78
2008-07-18 09:19:02 51°18.601 2°53.796 8.9 307 16.9 101080 78
2008-07-18 09:19:07 51°18.601 2°53.796 11.6 258 16.9 101080 78
2008-07-18 09:19:12 51°18.601 2°53.796 9.2 281 16.9 101080 78
2008-07-18 09:19:17 51°18.601 2°53.796 12.1 260 16.9 101070 78
2008-07-18 09:19:22 51°18.601 2°53.796 11.3 305 16.9 101070 78
2008-07-18 09:19:27 51°18.601 2°53.796 8.7 258 16.9 101080 78
2008-07-18 09:19:32 51°18.601 2°53.796 7.6 308 16.9 101080 78
2008-07-18 09:19:37 51°18.601 2°53.796 7.3 262 16.9 101080 78
2008-07-18 09:19:42 51°18.601 2°53.796 11.6 304 16.9 101080 78
2008-07-18 09:19:47 51°18.601 2°53.796 10.9 262 16.9 101080 78
2008-07-18 09:19:53 51°18.601 2°53.796 11.5 305 16.9 101080 78
2008-07-18 09:19:57 51°18.601 2°53.796 11.5 259 16.9 101080 78
2008-07-18 09:20:02 51°18.601 2°53.796 8.5 304 16.9 101080 78
2008-07-18 09:20:07 51°18.601 2°53.797 9.2 262 16.9 101090 78
2008-07-18 09:20:12 51°18.601 2°53.796 7.8 306 16.9 101090 78
2008-07-18 09:20:17 51°18.601 2°53.796 10 260 16.9 101090 78
2008-07-18 09:20:22 51°18.601 2°53.796 10.3 303 16.9 101090 78
2008-07-18 09:20:27 51°18.601 2°53.796 10.8 260 16.9 101080 78
2008-07-18 09:20:33 51°18.601 2°53.796 7.5 307 16.9 101080 78
2008-07-18 09:20:37 51°18.601 2°53.796 11.7 259 16.9 101080 78
2008-07-18 09:20:42 51°18.601 2°53.796 10.8 307 16.9 101080 78
2008-07-18 09:20:47 51°18.601 2°53.796 8.5 261 16.9 101080 78
2008-07-18 09:20:53 51°18.601 2°53.796 8.6 303 16.9 101080 78
2008-07-18 09:20:57 51°18.601 2°53.796 10.7 260 16.9 101080 78
2008-07-18 09:21:02 51°18.601 2°53.796 7.6 304 16.9 101080 78
2008-07-18 09:21:07 51°18.601 2°53.795 11.4 259 16.9 101080 78
2008-07-18 09:21:12 51°18.601 2°53.795 11.4 282 16.9 101080 78
2008-07-18 09:21:17 51°18.601 2°53.795 8.7 258 16.9 101080 78
2008-07-18 09:21:22 51°18.601 2°53.795 9.7 303 16.9 101080 78
2008-07-18 09:21:27 51°18.601 2°53.795 10.7 259 16.9 101090 78
2008-07-18 09:21:32 51°18.601 2°53.795 10.6 306 16.9 101090 78
2008-07-18 09:21:37 51°18.601 2°53.795 8.2 260 16.9 101090 78
2008-07-18 09:21:42 51°18.601 2°53.795 9.3 302 16.9 101090 78
2008-07-18 09:21:47 51°18.601 2°53.795 7.2 263 16.9 101090 77
2008-07-18 09:21:53 51°18.601 2°53.795 9.2 304 16.9 101090 77
2008-07-18 09:21:57 51°18.601 2°53.795 6.1 262 16.9 101080 77
2008-07-18 09:22:02 51°18.601 2°53.795 7.9 302 16.9 101080 77
2008-07-18 09:22:07 51°18.601 2°53.795 10.1 261 16.8 101080 77
2008-07-18 09:22:12 51°18.601 2°53.795 11 305 16.8 101080 77
2008-07-18 09:22:17 51°18.601 2°53.795 8.1 260 16.9 101090 78
2008-07-18 09:22:22 51°18.601 2°53.795 10.9 307 16.9 101090 78
2008-07-18 09:22:27 51°18.6 2°53.795 7.8 259 16.9 101090 78
2008-07-18 09:22:33 51°18.6 2°53.795 11.5 308 16.9 101090 78
2008-07-18 09:22:37 51°18.6 2°53.794 10.9 259 16.9 101080 78
2008-07-18 09:22:42 51°18.601 2°53.795 11.9 301 16.9 101080 78
2008-07-18 09:22:47 51°18.6 2°53.795 9.4 257 16.9 101090 78
2008-07-18 09:22:53 51°18.6 2°53.794 9.7 308 16.9 101090 78
2008-07-18 09:22:57 51°18.6 2°53.794 8.6 259 16.9 101090 78
2008-07-18 09:23:02 51°18.601 2°53.794 10.8 305 16.9 101090 78
2008-07-18 09:23:07 51°18.6 2°53.794 11.3 259 17 101090 78
2008-07-18 09:23:13 51°18.6 2°53.793 9.2 276 17 101090 78
2008-07-18 09:23:17 51°18.601 2°53.793 10.9 256 17 101090 78
2008-07-18 09:23:22 51°18.601 2°53.793 10.3 301 17 101090 78
2008-07-18 09:23:27 51°18.601 2°53.793 9.2 258 17 101090 79
2008-07-18 09:23:33 51°18.601 2°53.793 11.8 302 17 101090 79